Regional Weather Roundup
Issued by NWS State College, PA

Home | Current Version | Previous Version | Graphics & Text | Print | Product List | Glossary Off
Versions: 1 2 3 4 5 6 7 8 9 10 11 12 13 14 15 16 17 18 19 20 21 22 23 24 25 26 27 28 29 30 31 32 33 34 35 36 37 38 39 40 41 42 43 44 45 46 47 48 49 50

244
ASUS41 KCTP 200010
RWRCTP

REGIONAL WEATHER ROUNDUP
NATIONAL WEATHER SERVICE STATE COLLEGE PA
800 PM EDT THU OCT 19 2017

Note: "fair" indicates few or no clouds below 12,000 feet with no
significant weather and/or obstructions to visibility.

* = STATION THAT DOES NOT REPORT PRECIPITATION /E.G. RAIN...SNOW...ETC/
    THUNDER OR FOG.

PAZ002>004-007>009-013>016-020>023-029>032-200100-
WESTERN PENNSYLVANIA

CITY           SKY/WX    TMP DP  RH WIND       PRES   REMARKS
ERIE           CLEAR     62  55  77 W5        30.13R
MEADVILLE      CLOUDY    62  50  64 SW5       30.15R
FRANKLIN*      CLOUDY    62  48  60 SW7       30.16R
NEW CASTLE     FAIR      63  49  60 SW3       30.17R
BEAVER COUNTY  CLEAR     64  46  52 SW8       30.15
BUTLER*        CLEAR     62  47  57 SW5       30.17R
PITTSBURGH INT MOCLDY    65  46  50 SW7       30.17R
PITTSBURGH     CLEAR     63  43  48 SW10      30.17R
INDIANA*       PTCLDY    59  46  63 W5        30.19S
LATROBE        CLEAR     59  45  58 SW6       30.19R
WASHINGTON CO* CLEAR     58  46  64 SW5       30.22R
$$

PAZ004>006-010>012-017>019-024>028-033>037-041-042-045-046-049>053-200100-
CENTRAL PENNSYLVANIA

CITY           SKY/WX    TMP DP  RH WIND       PRES   REMARKS
BRADFORD       PTCLDY    60  47  61 VRB3      30.13R
DUBOIS         CLOUDY    56  44  64 SW7       30.15R
CLEARFIELD     CLOUDY    60  44  55 SW5       30.15R
JOHNSTOWN      CLEAR     60  42  51 W10G21    30.18R
ALTOONA        CLEAR     61  42  49 SW6       30.17R
STATE COLLEGE  CLEAR     57  43  58 SW6       30.14R
WILLIAMSPORT   CLEAR     58  48  69 CALM      30.08R
SELINSGROVE    CLEAR     54  50  86 CALM      30.11R
FT INDIANTOWN  CLEAR     54  49  83 CALM      30.11R
CAPITAL CITY   CLEAR     62  46  55 NW3       30.11R
HARRISBURG     PTCLDY    64  50  60 SW10      30.11R
YORK           CLEAR     62  47  57 S6        30.13R
$$

PAZ038>040-043-044-047-048-054-055-060>062-067>071-200100-
EASTERN PENNSYLVANIA

CITY           SKY/WX    TMP DP  RH WIND       PRES   REMARKS
SCRANTON       CLEAR     63  44  50 SW6       30.09S
MOUNT POCONO   CLEAR     56  45  66 W10       30.11S
ALLENTOWN      CLEAR     54  46  74 SW6       30.10S
QUAKERTOWN*    CLEAR     55  48  76 CALM      30.13R
READING        CLEAR     61  51  70 S5        30.10S
LANCASTER      CLEAR     58  47  66 CALM      30.12R
COATESVILLE    CLEAR     59  50  72 VRB3      30.15S
POTTSTOWN      CLEAR     58  47  66 CALM      30.14R
BLUE BELL      CLEAR     59  45  58 SW3       30.13S
DOYLESTOWN     CLEAR     59  44  57 S5        30.11S
WILLOW GROVE   NOT AVBL
NORTH PHILA    CLEAR     64  45  49 SW7       30.13F
PHILADELPHIA   PTCLDY    65  47  52 SW12      30.13S
$$




USA.gov is the U.S. government's official web portal to all federal, state and local government web resources and services.